Wind_Speed
33 32 31 31 30 29 29 28 28 27 26 25 24 23 23 22 21 21 20 19 18 17 17 16 15 14 13 13 12 12 11 11 11 10 10 10 11 11 11 12 12 13 13 14 14 14 13 13 13 13 12 11 11 11 12 12 13 13 13 14 14 13 13 13 13 13 13 13 13 12 9 7 8 8 9 9 9 10 10 10 9 9 10 10 9 9 8 8
35 34 33 32 31 31 30 30 29 28 27 26 25 24 23 23 22 22 21 20 19 18 18 17 16 15 14 13 12 11 11 10 10 10 9 10 10 10 10 11 12 13 13 13 14 14 14 13 13 13 13 13 12 13 13 14 14 14 15 16 15 14 14 14 14 15 15 14 13 12 10 8 9 9 10 9 11 11 10 11 11 11 12 11 11 10 9 9
37 36 35 34 33 33 32 31 31 29 28 27 26 25 25 24 23 23 22 21 21 20 19 18 17 16 15 14 13 12 11 10 10 9 9 9 9 10 10 11 12 12 13 13 14 14 14 14 14 14 14 14 14 14 15 15 16 16 17 16 15 15 15 14 15 16 15 14 12 12 11 9 9 10 10 10 12 12 10 12 13 13 13 13 12 10 10 10
38 37 37 36 35 35 34 33 32 31 30 29 28 27 26 25 25 24 23 23 22 21 20 19 18 17 16 15 14 13 12 11 10 9 9 10 10 10 11 11 12 13 13 14 14 15 15 15 15 16 16 16 16 16 16 17 17 17 18 17 16 16 16 16 16 16 15 14 12 12 12 10 10 11 11 12 13 12 12 13 13 14 15 14 13 12 11 11
39 39 38 38 37 37 36 35 34 33 32 30 29 28 28 27 27 26 25 24 23 22 22 21 20 19 18 17 16 15 13 12 11 11 11 11 12 12 13 13 14 14 15 15 16 16 17 17 17 18 18 18 17 17 18 18 18 18 17 17 18 17 17 16 15 15 14 14 13 13 13 12 12 11 12 13 14 13 13 14 14 14 15 15 14 13 13 12
41 40 39 39 39 38 38 37 36 35 34 33 31 30 30 29 29 28 27 26 25 24 23 22 21 20 19 18 17 16 14 13 13 13 13 13 13 14 15 15 16 17 17 17 18 18 19 19 19 19 19 19 19 18 19 18 18 18 18 19 19 18 17 16 15 14 14 14 13 14 14 15 14 13 14 14 15 16 15 15 15 14 15 15 14 14 14 14
42 42 41 40 40 39 39 38 37 36 35 34 33 32 32 31 30 30 29 28 27 26 25 24 23 22 21 20 19 18 16 15 15 14 14 14 14 15 16 17 18 19 19 19 20 20 21 21 21 21 21 20 20 19 19 18 18 18 19 20 20 18 17 16 15 15 15 15 15 15 16 17 16 15 16 16 17 18 16 16 15 15 15 15 15 15 15 14
44 43 42 42 41 41 40 39 39 38 37 36 35 34 34 33 32 31 30 29 28 27 26 26 25 24 23 22 21 20 18 17 17 16 15 15 15 15 16 16 18 19 20 20 21 22 22 22 22 22 21 21 20 19 19 19 19 19 20 20 20 19 19 18 18 18 18 17 17 17 18 19 18 18 19 18 19 20 18 17 16 15 15 15 15 15 15 15
45 44 44 43 43 42 42 41 40 39 38 37 37 36 35 35 34 33 32 31 30 29 28 27 26 25 25 24 23 22 20 20 19 18 17 16 16 16 16 16 17 18 19 20 21 21 22 22 22 22 22 21 20 20 20 20 20 21 21 21 22 21 20 20 21 21 21 20 20 20 20 20 19 20 20 19 21 21 19 18 17 16 15 15 16 16 16 16
46 45 45 44 44 43 43 42 42 41 40 39 38 37 37 36 35 35 34 33 32 31 30 29 28 27 27 26 25 24 22 22 21 20 19 18 18 17 17 17 17 18 19 20 20 21 21 22 22 22 21 21 21 20 21 21 21 23 23 23 23 22 22 22 22 23 23 22 22 21 22 21 20 21 20 20 23 21 19 18 17 17 16 16 16 16 17 17
47 46 46 45 44 44 44 43 43 43 42 41 40 39 38 38 37 36 35 34 33 32 32 31 30 29 28 27 27 26 24 24 23 22 21 20 20 19 18 18 18 19 19 20 20 21 21 22 22 22 22 22 22 21 22 23 23 24 24 25 25 24 24 24 24 24 24 23 23 22 22 21 20 21 21 21 22 21 18 18 17 17 17 17 17 17 18 18
47 47 46 46 45 45 44 44 44 44 43 43 42 41 40 39 39 38 37 36 35 34 34 33 32 31 30 30 29 28 27 26 25 24 24 23 22 21 20 20 19 19 19 20 21 21 22 22 23 23 23 23 22 22 23 24 24 25 25 26 26 25 25 25 25 26 25 23 23 23 22 20 21 22 22 21 22 21 19 18 17 17 18 18 19 19 20 19
47 47 47 47 46 46 46 45 45 45 45 44 43 43 42 41 41 40 39 38 37 37 36 35 34 33 33 32 31 30 29 28 27 27 26 25 24 23 22 21 21 21 20 21 21 22 23 23 24 23 23 24 23 24 25 25 26 26 27 27 27 27 26 25 26 27 26 24 23 24 22 20 23 23 21 22 23 21 19 18 18 17 18 19 21 21 21 21
48 48 48 48 47 47 47 46 46 46 46 46 45 44 44 43 43 42 41 40 39 39 38 37 36 35 35 33 32 32 31 30 29 29 28 28 27 25 24 23 23 22 22 22 23 23 24 24 24 24 24 25 25 25 26 26 26 27 28 27 28 28 28 27 27 26 26 25 25 26 24 22 24 23 21 23 24 22 20 19 19 18 19 21 22 23 23 22
49 49 49 48 48 48 48 48 47 47 47 47 47 46 46 45 44 43 43 42 41 41 40 39 38 37 36 35 34 34 33 32 31 31 31 30 29 27 26 25 25 24 24 24 24 25 25 25 26 25 25 26 26 26 28 28 27 28 29 29 29 29 29 28 27 26 26 26 27 28 26 25 25 24 22 23 25 24 22 20 20 20 21 22 23 23 23 23
50 50 50 49 49 49 49 48 48 48 48 48 48 48 47 47 46 45 45 44 43 42 41 41 40 39 38 36 35 35 35 34 34 33 32 32 31 30 29 28 27 27 27 26 26 26 26 27 27 27 27 27 28 28 30 29 28 29 30 30 31 30 30 28 27 27 27 27 29 29 28 27 27 25 24 24 25 26 24 22 23 23 23 23 24 24 23 23
51 51 51 50 50 50 49 49 49 49 49 49 49 49 49 48 48 47 46 45 45 44 43 42 41 40 40 38 37 37 37 36 36 35 34 34 33 32 31 31 30 30 29 28 28 28 28 28 28 29 29 28 29 30 31 31 30 32 32 31 31 30 30 30 29 28 27 28 30 32 31 29 29 28 25 25 25 26 25 24 24 25 25 25 26 26 24 23
52 52 52 52 51 51 51 50 50 50 50 50 50 50 50 49 49 49 48 47 46 45 45 44 43 42 41 40 38 38 39 39 38 37 37 36 35 34 34 33 33 32 31 31 30 29 30 30 30 31 30 28 29 32 33 31 32 35 34 32 31 30 30 31 32 30 29 29 31 33 33 30 30 30 27 26 26 26 26 26 26 26 27 27 28 27 25 24
53 53 53 52 52 52 52 51 51 51 51 51 51 51 51 51 50 50 50 49 48 47 46 45 44 44 43 42 41 41 41 41 40 39 39 38 37 37 36 36 35 35 34 33 32 31 31 31 31 32 31 29 31 35 35 33 34 35 35 33 33 32 30 30 33 32 30 32 32 34 34 32 31 31 30 28 28 27 27 27 28 27 28 29 30 28 28 26
55 55 54 54 53 53 53 53 52 52 52 52 52 52 52 52 52 52 51 51 50 48 48 48 46 46 45 44 43 43 42 42 42 41 41 40 40 39 38 38 37 37 36 34 34 33 33 33 33 32 31 32 35 36 36 35 36 36 35 34 34 34 32 31 33 33 31 34 34 34 36 34 32 32 32 31 30 28 27 29 30 29 29 30 31 31 30 28
57 56 55 55 55 54 54 54 54 54 53 53 53 53 53 53 53 53 52 51 51 50 50 50 49 48 47 46 45 44 44 44 44 44 43 42 42 41 41 40 39 39 38 37 37 35 34 35 34 32 33 35 38 37 37 37 38 38 36 35 35 35 34 34 35 34 33 35 35 35 37 35 33 33 33 33 31 29 28 29 31 31 30 31 32 32 32 30
59 58 57 57 56 56 56 55 55 55 54 54 54 54 54 54 54 54 53 53 52 52 52 51 51 50 49 48 47 46 46 46 45 45 45 44 44 44 42 42 41 41 40 40 40 37 36 37 35 34 35 38 39 39 39 39 39 39 37 37 37 36 36 36 37 36 35 37 35 35 39 37 34 34 33 34 34 32 30 30 31 33 33 31 32 33 33 31
61 60 59 59 58 57 57 57 56 55 55 55 55 55 55 55 55 55 55 55 54 53 53 53 53 52 51 50 49 49 48 48 47 47 47 46 46 45 44 43 43 42 43 43 40 39 39 38 38 37 38 39 39 40 41 41 40 40 39 39 39 38 37 38 38 38 37 37 37 37 40 38 35 35 35 34 35 34 32 31 32 35 34 32 33 35 33 31
63 62 62 61 60 60 59 58 58 57 56 56 56 56 56 56 56 56 56 57 57 55 54 54 54 54 52 52 51 50 50 50 49 49 48 47 47 47 46 45 45 45 46 44 41 42 41 42 43 40 39 39 40 40 41 41 42 41 40 41 41 40 39 38 39 41 39 38 38 39 42 40 34 36 37 34 35 35 33 32 34 36 35 33 34 35 35 33
65 64 64 63 62 61 61 61 60 58 58 57 57 56 56 56 56 56 57 59 60 58 55 55 55 55 54 53 53 52 52 52 51 50 48 48 48 48 47 47 46 46 46 44 43 43 43 45 46 42 39 38 39 40 41 41 42 42 41 41 42 40 40 39 40 42 41 39 38 40 43 41 35 36 37 34 34 35 33 33 36 37 36 35 35 36 36 34
68 67 66 65 64 63 63 63 61 60 59 58 58 57 57 57 57 57 57 60 63 60 58 57 56 56 56 55 54 53 54 54 52 52 50 48 48 48 48 48 47 46 45 45 45 46 46 47 46 42 39 37 39 40 41 42 42 42 42 42 41 40 39 39 39 41 42 41 40 41 43 43 38 34 34 34 35 35 33 33 36 38 38 37 37 36 37 35
69 68 67 67 66 65 64 63 62 62 61 59 59 59 59 58 58 58 57 60 65 62 60 59 58 58 57 56 55 54 56 55 53 53 51 49 48 48 49 49 48 46 45 46 49 49 48 46 44 42 40 39 39 40 41 42 43 43 42 41 41 40 39 38 38 40 42 42 43 42 42 45 42 32 29 33 36 36 34 34 36 39 39 39 39 38 37 36
70 68 68 68 67 66 65 65 64 63 61 61 61 61 61 60 60 59 57 60 66 65 63 62 60 60 59 58 57 56 57 57 54 53 50 48 48 48 48 48 48 46 45 48 50 48 46 45 43 42 41 40 40 40 40 42 43 42 41 40 40 40 39 38 38 40 41 44 46 43 40 44 45 35 30 33 35 35 34 35 39 40 39 40 40 39 38 37
71 71 70 69 69 68 67 67 66 64 64 63 63 63 63 62 61 59 58 62 67 68 67 65 62 61 61 60 59 58 59 59 57 54 51 49 48 48 48 47 48 48 47 48 48 47 47 45 42 41 41 40 39 39 39 40 41 41 39 39 39 39 39 38 40 40 42 47 47 41 38 42 45 40 35 34 32 32 33 36 40 41 41 41 41 40 39 39
67 70 71 71 71 70 70 69 67 65 65 65 64 64 63 64 62 59 61 66 69 69 70 68 65 63 62 61 61 60 59 59 58 56 54 52 51 51 50 48 49 50 50 49 48 47 48 46 44 42 41 39 38 38 38 38 39 39 39 39 38 39 39 39 41 41 45 49 45 40 38 41 46 43 38 36 32 30 32 36 39 40 41 42 41 40 40 40
62 64 67 71 72 72 71 70 68 66 66 66 65 65 65 65 63 62 65 69 68 69 73 72 68 66 63 63 63 62 61 60 60 59 57 56 54 52 52 51 50 50 51 50 47 46 46 46 45 42 40 39 39 38 38 39 39 39 40 40 39 40 41 42 43 44 48 49 44 42 40 42 47 45 40 39 36 31 31 35 38 39 40 40 40 40 40 41
59 60 61 64 69 72 72 71 70 69 69 68 68 68 67 67 68 69 70 70 68 70 73 73 71 68 66 65 65 64 63 63 62 61 59 57 56 54 53 52 50 49 51 50 47 45 45 44 43 43 42 40 39 39 39 39 38 39 40 40 40 42 44 45 46 46 47 46 44 44 44 45 48 43 39 39 38 34 32 33 36 37 38 39 39 39 40 40
57 58 58 58 61 66 69 70 71 73 73 72 72 72 71 72 74 73 72 70 69 71 73 73 71 69 68 67 65 64 64 63 61 60 58 57 56 54 53 52 50 50 50 49 47 46 45 43 42 42 41 39 38 39 38 38 38 40 41 41 42 44 46 47 47 46 46 45 45 46 47 49 47 41 38 36 37 37 35 33 35 36 37 37 37 38 39 39
58 59 58 57 58 60 62 65 67 70 72 73 74 76 77 78 76 72 70 69 70 72 73 72 72 71 70 67 64 62 62 61 59 57 56 55 54 53 52 50 49 48 48 48 49 48 45 43 41 39 39 38 38 38 39 41 42 43 42 43 45 45 46 46 46 47 47 47 47 48 50 50 46 42 39 36 35 37 36 34 33 33 35 36 36 36 37 38
61 61 59 57 58 57 59 61 63 66 67 68 72 77 80 79 73 69 67 66 69 72 71 72 73 73 72 70 66 64 63 61 58 57 56 54 52 51 50 48 47 48 47 48 49 48 45 44 42 40 39 39 39 39 41 44 45 44 43 45 46 44 43 45 47 48 48 50 51 51 51 49 45 43 41 38 35 34 35 34 32 31 33 34 35 35 35 37
60 62 62 59 55 55 58 60 62 66 68 69 74 77 77 74 68 66 67 69 72 73 71 72 73 73 73 72 69 67 66 63 60 59 57 54 53 52 50 49 47 48 48 47 48 47 46 46 45 43 41 40 41 41 42 45 46 46 45 45 44 43 43 45 47 48 49 52 53 52 51 49 47 45 42 40 38 35 34 34 33 32 32 32 33 34 35 36
61 61 62 59 54 55 57 57 61 68 72 74 78 76 72 68 64 63 66 68 70 70 70 73 73 73 72 72 70 68 66 64 61 59 57 55 54 51 51 50 48 47 47 45 45 45 46 48 47 46 44 43 42 42 44 46 48 47 46 45 43 44 45 46 47 49 50 53 55 54 53 52 51 48 44 42 40 37 35 34 34 33 32 31 32 33 35 35
62 59 61 60 56 57 59 57 58 65 71 77 80 75 69 65 62 63 65 65 66 66 66 68 69 70 70 69 69 68 66 64 61 59 56 52 49 45 46 48 48 47 47 45 45 46 47 49 50 50 48 45 44 44 46 47 48 47 46 46 45 46 47 46 47 50 51 54 56 55 54 53 52 49 46 44 42 39 37 35 33 32 31 31 31 32 34 34
60 58 59 58 57 59 61 60 59 61 67 76 79 74 67 60 57 60 65 66 68 67 64 64 65 67 67 66 66 66 65 62 60 57 55 51 46 42 42 45 46 46 46 47 47 47 49 51 52 52 50 48 46 46 45 45 44 45 46 47 47 47 47 47 48 50 51 54 56 57 57 54 51 50 49 48 43 39 37 35 33 31 31 31 31 31 32 33
62 62 58 54 56 60 60 61 62 64 66 69 69 66 63 61 60 62 66 67 69 69 65 64 65 66 66 65 65 65 64 63 60 57 54 51 47 45 44 45 46 45 46 47 47 48 51 53 53 53 51 49 47 44 42 41 42 44 46 48 48 47 47 48 50 51 52 53 55 58 59 55 52 52 51 50 46 40 36 34 32 32 32 32 32 32 32 33
64 65 62 59 59 59 60 63 65 67 68 67 63 58 55 57 59 61 64 65 68 69 66 65 66 66 65 65 66 65 64 66 63 60 56 53 50 48 47 46 47 46 47 48 48 48 50 51 52 52 52 50 47 44 43 44 45 46 47 48 49 47 46 48 51 51 51 53 54 57 60 57 53 53 53 51 47 41 37 34 32 31 32 33 32 32 33 34
68 68 64 60 60 56 55 60 63 66 69 67 63 59 57 57 55 54 56 59 63 64 63 64 64 64 65 65 67 67 67 67 64 61 58 54 52 51 49 48 50 50 50 50 49 48 49 51 52 53 53 51 48 47 47 47 48 49 50 50 49 48 47 47 49 49 51 53 54 57 60 58 53 52 52 50 46 41 37 35 34 33 33 34 34 34 35 36
72 72 66 61 61 60 58 58 58 61 64 63 62 62 62 61 58 55 56 57 58 58 59 61 61 63 64 64 65 69 69 67 62 59 58 55 53 51 51 52 52 53 53 52 51 51 52 54 55 54 53 52 51 50 50 51 52 52 50 49 48 48 47 47 48 49 51 54 54 57 60 59 55 54 52 50 46 42 39 37 37 36 36 37 37 36 36 38
72 74 73 68 65 64 64 62 59 59 59 59 62 64 63 61 59 58 57 56 56 57 59 60 59 60 61 61 64 68 70 66 61 59 58 57 53 51 52 54 54 56 56 54 54 54 54 54 55 54 54 54 54 54 54 53 52 50 48 47 48 48 48 50 52 51 54 55 54 57 60 57 54 55 54 50 47 44 41 38 38 38 38 38 38 37 38 40
72 73 76 75 73 71 70 66 63 62 60 60 63 63 60 61 61 60 59 58 56 58 61 60 58 59 60 61 63 66 66 62 58 59 60 58 55 53 52 53 54 56 57 56 56 56 56 56 56 55 55 55 55 55 54 52 49 48 48 49 51 51 51 53 53 54 57 57 54 57 58 54 51 53 53 50 47 44 42 40 39 39 39 39 39 40 42 44
74 74 73 75 78 79 77 68 63 63 60 59 62 61 58 61 63 62 62 63 61 61 61 58 56 58 60 61 62 62 61 58 57 60 60 57 55 54 52 51 52 55 56 56 57 57 58 59 58 57 58 57 55 54 54 53 52 52 51 52 54 54 54 56 57 58 58 56 56 58 56 53 51 50 49 48 47 44 43 42 42 42 42 43 43 45 46 48
77 76 76 76 76 78 76 68 60 58 54 54 60 60 57 58 61 62 63 63 61 60 60 59 57 57 57 57 58 59 58 59 60 59 57 57 57 56 55 54 54 55 55 56 57 58 59 61 60 59 60 58 55 54 55 55 54 54 54 55 55 56 56 59 61 60 56 55 59 58 53 53 52 48 47 48 48 46 45 45 45 46 47 48 48 50 51 52
78 78 79 80 78 76 73 68 63 60 54 52 55 57 56 56 57 60 62 59 56 56 58 59 57 54 53 53 55 56 58 60 61 60 59 60 61 61 60 58 57 56 55 55 56 58 60 60 58 59 59 57 54 53 54 55 55 56 58 58 58 58 59 60 61 59 56 58 60 56 53 55 53 49 50 51 51 51 50 50 50 51 51 52 53 54 54 54
79 79 80 83 83 81 76 70 66 64 61 59 58 57 57 56 55 56 57 57 56 55 57 58 54 49 48 49 50 53 55 57 59 60 60 60 60 60 60 58 57 56 54 53 53 54 58 57 55 57 59 56 54 53 54 57 59 60 60 60 60 60 59 59 60 58 58 60 59 56 56 57 53 51 53 53 52 53 53 53 53 52 52 53 54 56 56 56
77 81 81 83 85 86 83 77 72 67 64 64 64 61 59 57 55 55 56 58 58 57 57 56 50 46 47 47 48 49 50 51 55 56 55 56 57 58 58 58 57 55 55 55 53 53 55 54 53 57 60 57 54 54 57 59 61 61 60 60 60 61 62 63 62 59 58 59 56 54 56 55 51 51 53 52 51 52 52 52 52 52 53 54 55 56 56 57
73 79 82 83 83 85 86 84 80 75 68 63 61 62 62 60 57 56 57 60 60 59 59 56 51 51 53 52 51 48 44 44 48 48 48 51 53 54 55 57 58 57 57 57 56 55 56 56 56 58 62 60 55 56 61 61 61 63 63 61 60 62 64 65 63 59 58 58 54 53 55 53 48 49 51 52 53 54 54 54 53 53 55 55 56 57 59 60
68 73 81 84 83 83 84 83 80 78 75 69 61 58 59 59 58 58 59 61 61 60 60 59 57 58 59 56 53 47 42 43 46 47 48 49 49 50 53 56 58 60 60 59 59 58 58 58 59 60 64 63 59 60 64 64 66 68 64 60 60 63 63 63 62 61 59 58 56 56 56 52 49 51 54 55 56 56 56 55 55 55 56 58 59 61 62 63
Wind_Direction
208 208 208 207 206 204 201 199 197 197 197 198 198 199 200 200 201 201 201 201 200 200 200 200 201 202 203 206 208 209 210 210 210 211 213 216 217 219 220 222 223 222 221 219 219 220 223 225 226 230 233 241 250 261 272 281 288 293 296 297 300 305 303 302 302 303 307 311 309 301 287 268 257 255 253 256 261 266 277 286 290 292 290 289 289 291 289 288
207 207 207 206 204 202 200 199 198 199 200 201 202 203 204 204 204 203 201 199 198 197 197 197 197 197 197 198 200 202 202 203 204 204 208 213 217 220 223 225 226 225 224 224 226 227 230 231 233 237 242 249 258 266 275 282 286 290 292 293 299 300 298 299 300 301 304 306 303 295 283 266 259 261 260 261 266 269 277 284 287 288 287 288 289 289 285 280
207 206 205 204 203 201 200 200 200 201 203 204 206 206 206 206 205 203 201 200 199 199 199 199 199 198 199 199 201 202 202 203 204 205 210 215 219 223 226 228 229 230 230 230 232 234 237 238 241 245 250 256 263 270 277 281 285 288 289 293 297 296 296 298 298 299 301 301 298 288 279 268 259 262 264 262 266 272 278 279 284 286 286 287 287 284 279 274
207 206 205 204 202 201 200 201 202 203 205 207 208 208 208 207 205 204 203 203 202 202 202 201 201 201 201 202 203 205 206 208 211 215 219 223 227 230 232 234 235 236 236 237 239 240 243 245 249 253 257 263 267 273 277 281 284 286 289 292 293 293 295 296 295 296 297 296 292 284 279 272 262 261 264 263 265 270 273 275 280 284 285 286 285 282 276 271
208 207 206 204 203 202 201 202 203 205 207 208 209 209 209 208 206 206 206 206 206 205 206 205 205 205 205 205 206 208 209 212 216 221 226 230 235 237 239 240 240 241 241 242 244 246 248 251 255 259 263 267 270 274 277 280 283 285 288 291 291 292 293 293 292 292 292 291 289 283 279 273 269 267 265 266 268 267 268 273 277 280 283 285 284 282 280 277
208 208 207 205 204 203 203 204 205 206 208 209 210 210 209 208 208 208 208 209 209 209 209 210 210 210 210 210 210 212 212 216 220 224 230 234 238 241 244 245 246 246 246 247 248 250 252 255 259 263 266 269 272 275 277 279 281 284 289 290 290 291 290 289 288 287 287 287 285 280 278 276 274 273 271 271 273 272 270 272 274 274 277 278 279 280 281 282
208 208 207 206 206 206 206 207 207 208 209 210 211 210 210 210 210 211 211 211 211 212 213 213 214 214 214 214 215 216 215 219 224 227 231 236 239 243 246 248 249 250 251 251 252 253 256 259 262 265 267 270 272 275 276 278 281 286 290 290 290 290 288 287 284 283 283 283 282 278 277 276 275 277 276 276 276 275 275 273 271 270 269 269 272 276 279 281
208 208 207 207 207 208 208 209 210 211 212 212 212 212 211 211 212 212 213 213 214 215 216 217 218 218 218 218 219 219 219 222 226 229 233 237 241 245 248 250 251 252 253 254 255 256 258 260 263 265 268 270 272 274 276 278 283 288 289 290 289 288 286 285 283 282 280 279 277 275 274 273 275 276 275 278 278 276 276 274 271 266 263 263 267 272 277 279
208 208 208 208 208 209 210 211 212 213 214 214 214 214 213 213 214 214 215 215 216 217 218 219 221 221 222 222 223 223 223 225 229 231 235 239 243 247 251 254 256 256 256 257 257 258 259 261 263 264 266 269 270 273 275 278 285 289 289 290 288 286 285 284 283 282 280 278 275 273 271 271 272 272 274 277 275 274 275 274 272 266 260 259 263 269 273 276
209 209 209 209 210 211 211 212 213 214 215 216 216 216 216 216 216 217 217 218 219 220 221 222 223 225 226 226 227 227 228 230 231 234 237 241 245 249 254 257 260 261 260 259 259 259 260 261 263 264 266 268 270 272 276 280 286 289 290 290 288 286 284 283 282 281 279 277 275 273 270 269 269 270 272 272 270 272 274 272 270 266 261 259 261 266 270 274
211 211 211 211 212 212 213 214 215 216 217 218 218 219 219 219 219 219 220 220 221 222 223 225 226 227 229 230 231 231 232 234 235 237 240 242 246 250 254 259 262 264 264 262 261 260 261 262 263 264 266 268 269 273 278 282 286 289 290 290 288 287 284 283 283 281 279 277 275 271 268 268 267 267 267 268 270 272 271 270 268 264 262 261 263 266 270 272
213 213 213 213 214 215 215 216 217 218 219 219 220 221 222 222 222 222 222 223 223 225 226 227 228 230 231 233 234 234 235 237 238 240 242 244 247 250 254 259 262 265 266 264 263 262 262 262 263 264 266 267 270 275 279 283 287 289 290 289 287 285 284 284 283 281 278 277 275 271 267 267 265 264 266 268 269 269 268 267 265 263 263 263 265 268 270 273
215 215 215 216 216 217 218 219 219 220 221 221 222 222 223 224 225 225 225 226 226 227 228 229 230 232 233 235 236 237 238 240 241 243 245 247 248 251 254 258 262 266 267 267 265 264 263 263 264 265 266 268 271 275 279 284 288 289 289 287 286 284 283 282 281 281 280 278 275 271 267 265 264 264 267 269 267 264 263 262 262 261 262 264 267 269 272 275
218 218 218 218 219 219 220 221 222 222 223 223 224 224 225 226 227 228 228 228 229 230 230 231 232 233 235 236 238 240 240 242 244 245 247 248 250 252 256 259 263 266 268 268 267 265 264 264 264 265 267 269 272 275 279 284 287 288 288 286 284 283 283 281 279 280 282 280 275 271 268 266 265 266 266 266 266 263 259 258 258 258 260 262 265 269 272 276
221 221 221 221 221 222 222 223 223 224 225 225 226 226 227 228 229 229 230 231 231 232 233 233 234 235 237 238 240 242 243 244 246 247 248 250 252 254 257 260 263 266 268 269 269 268 266 265 265 266 267 269 272 276 280 284 287 288 286 284 282 282 283 283 283 283 282 279 275 273 271 268 267 267 266 262 262 262 259 257 257 257 257 259 261 265 269 274
224 224 223 224 224 225 225 225 226 226 227 227 227 228 229 229 230 231 232 232 233 234 235 235 236 237 238 239 241 244 246 247 248 249 250 252 254 255 257 260 263 265 267 269 270 269 268 267 266 266 267 269 273 278 281 283 286 284 282 282 283 284 284 284 283 282 280 278 276 274 272 271 270 267 265 262 261 261 260 259 259 259 258 259 260 262 265 269
227 227 227 226 227 227 228 228 228 228 229 229 229 230 230 231 232 233 234 234 235 236 237 237 238 239 240 241 242 245 247 248 249 251 252 254 255 256 258 260 262 265 268 270 271 271 270 268 267 267 267 270 275 278 280 283 284 281 279 281 283 285 285 284 280 278 278 276 274 273 272 273 272 269 265 262 261 261 262 261 261 262 262 262 261 261 263 266
229 229 229 229 229 229 229 230 230 230 230 231 231 231 232 233 234 235 235 236 237 238 239 240 240 241 242 242 243 245 248 249 251 252 254 255 256 257 258 260 263 266 269 270 272 272 271 269 268 267 268 271 275 277 278 280 280 280 283 284 283 281 280 281 281 279 277 274 271 271 271 271 272 271 268 265 261 262 263 263 262 263 265 264 262 263 264 265
230 230 231 231 231 231 231 231 231 232 232 232 232 233 233 234 235 236 237 238 238 239 240 241 242 243 243 243 244 245 248 250 252 254 255 256 257 258 260 261 263 266 268 271 272 271 271 270 268 268 270 272 273 274 276 278 278 280 284 285 284 282 280 280 280 278 276 273 270 270 270 270 271 272 271 267 263 263 265 267 265 263 265 266 265 265 264 264
230 230 231 232 232 233 233 233 233 233 233 234 234 235 235 235 236 237 238 239 240 240 241 242 242 244 244 244 245 247 248 251 253 254 256 257 258 260 261 262 264 266 269 271 271 270 271 271 270 270 271 272 271 272 276 277 277 279 281 282 283 283 283 282 279 276 274 271 269 269 270 271 272 272 270 266 263 264 267 270 269 266 265 266 266 265 264 264
230 230 231 231 232 233 233 234 234 234 235 235 236 236 237 237 238 239 239 240 241 241 242 243 243 244 245 246 247 248 249 250 252 254 256 257 259 260 261 263 265 267 270 270 271 271 271 271 272 272 271 271 272 273 275 275 275 278 279 280 281 280 281 280 277 276 273 269 268 269 270 271 272 272 270 268 266 264 265 267 270 270 267 266 266 266 265 264
231 231 231 231 232 233 233 234 235 235 236 237 237 238 239 239 240 240 241 241 242 242 243 244 244 245 245 247 248 249 250 251 252 254 256 258 259 260 262 264 265 268 269 270 272 272 270 272 273 271 270 271 273 275 274 273 274 277 278 278 277 277 278 277 275 275 272 269 268 268 269 270 271 271 270 269 268 267 266 268 269 270 269 268 268 266 265 264
231 232 232 232 232 232 233 234 234 235 237 238 239 239 240 241 241 242 243 243 242 243 244 245 246 246 246 247 249 250 251 252 253 254 256 258 259 261 262 264 266 268 269 270 271 271 271 272 271 270 270 272 274 274 274 275 275 275 275 275 274 274 275 275 275 274 271 270 269 268 268 269 271 272 270 268 268 268 268 270 270 268 268 268 267 266 265 264
230 231 232 232 233 233 233 234 234 235 236 237 239 240 241 242 243 243 244 245 244 243 244 246 247 248 247 248 250 251 252 252 253 254 256 258 260 262 263 265 266 268 269 270 271 271 272 272 271 271 272 274 274 273 273 274 274 273 273 273 273 273 273 274 274 273 271 270 269 269 270 270 271 271 268 267 268 269 270 271 271 269 268 266 266 267 267 265
229 230 231 232 233 233 234 234 235 235 236 237 238 239 241 242 243 244 245 246 245 243 244 245 247 248 248 249 250 251 253 253 254 255 256 258 260 262 264 265 267 268 270 271 270 271 272 273 273 273 272 272 272 271 271 271 272 273 273 273 272 273 273 273 273 272 272 270 268 269 271 272 271 269 268 267 266 268 270 272 272 271 269 267 266 267 268 268
229 230 231 231 232 233 234 235 235 236 236 237 239 240 240 241 243 244 245 247 246 242 242 244 246 248 248 249 250 252 253 253 254 256 256 258 260 263 265 266 267 268 269 271 271 271 271 272 274 274 271 268 268 269 270 271 272 273 273 274 274 273 272 271 271 272 272 271 269 268 272 275 272 269 271 271 267 265 265 267 270 271 271 269 268 267 269 269
230 231 231 232 232 233 234 235 235 236 237 238 239 240 240 241 243 244 246 248 246 242 242 243 243 245 247 249 250 252 253 253 254 256 257 259 260 262 264 265 266 267 269 271 271 271 271 271 271 271 269 268 268 269 271 272 273 273 274 275 274 272 270 268 268 269 271 272 271 270 274 277 275 270 270 270 270 269 268 269 270 270 270 270 269 268 269 270
231 231 232 233 233 233 234 234 235 236 237 238 239 240 240 241 241 243 244 246 246 244 243 243 242 244 246 248 250 251 253 253 254 256 257 259 260 261 263 264 266 267 268 269 270 271 271 269 269 269 269 270 270 271 271 272 273 273 273 272 271 271 270 269 268 268 270 271 270 272 277 279 278 276 270 267 269 273 275 276 274 272 271 270 269 269 270 271
232 232 232 233 234 234 234 234 235 236 236 237 238 238 239 239 240 241 242 244 245 246 246 244 243 244 246 248 250 251 253 255 256 257 257 258 259 260 261 263 265 266 266 267 269 270 269 269 269 269 270 271 271 271 271 270 270 271 271 270 270 269 269 270 270 271 271 270 271 275 278 279 279 277 272 269 271 275 277 276 276 275 274 272 271 271 270 270
233 233 233 234 234 235 235 235 235 236 236 237 237 238 239 239 239 239 240 243 246 248 249 248 246 245 246 248 250 251 253 255 257 257 257 257 258 259 261 262 264 265 266 266 267 268 270 271 270 269 270 271 270 269 268 267 267 268 268 268 269 270 271 271 271 272 271 271 274 278 279 279 278 276 277 277 276 276 276 274 275 275 275 274 273 272 271 269
235 235 234 234 235 235 236 236 235 236 237 237 237 237 238 239 239 238 240 244 247 249 251 251 250 249 248 248 250 251 252 253 255 256 257 258 258 258 260 261 262 264 266 266 266 267 269 270 270 269 267 266 266 265 264 264 265 267 268 270 271 270 270 270 269 269 270 273 278 280 279 277 275 277 281 283 282 280 276 273 273 273 273 273 272 271 270 269
237 238 238 236 234 234 236 236 237 237 236 236 237 237 237 237 237 238 241 245 246 248 251 252 253 252 251 249 249 250 251 252 253 254 256 257 258 259 260 261 261 263 264 265 266 265 265 265 266 266 264 264 264 264 264 265 267 268 269 270 270 270 270 269 268 269 271 276 279 279 278 275 273 276 281 284 286 285 279 274 273 272 271 270 270 269 268 266
238 238 239 239 237 235 235 236 237 238 238 238 237 237 236 235 237 240 243 245 247 249 251 253 254 254 252 251 250 250 250 251 252 253 254 256 257 258 259 260 261 261 263 265 265 265 264 263 263 264 266 266 266 266 267 267 266 265 265 266 267 267 269 270 272 274 275 276 276 276 276 274 274 277 280 282 285 285 283 279 277 275 274 272 270 268 266 264
241 240 239 240 240 237 236 236 237 237 238 239 240 239 237 236 239 243 245 245 248 250 252 254 255 255 255 253 252 251 251 252 252 253 254 255 256 258 259 260 262 263 263 264 264 263 264 263 262 263 265 266 266 266 266 264 263 262 264 265 265 266 269 272 275 276 277 277 276 275 274 274 278 281 281 280 281 284 286 284 279 275 273 271 269 267 264 261
241 242 242 240 239 239 239 239 239 239 238 237 239 240 239 240 243 245 246 247 247 248 251 253 254 255 256 255 254 254 253 253 253 254 255 256 258 259 260 260 261 261 260 260 262 264 264 264 263 261 261 262 262 263 263 264 264 264 264 264 266 268 270 272 273 275 277 277 276 275 275 277 281 282 280 280 281 284 286 282 278 272 267 266 265 264 262 259
242 242 243 242 239 240 241 241 242 242 242 239 238 239 239 242 245 246 247 248 247 249 251 253 255 256 257 258 258 258 258 257 257 257 257 258 258 258 258 258 258 259 259 260 261 263 264 263 262 260 259 259 259 260 262 264 265 265 265 266 269 270 270 271 272 274 276 276 275 276 278 280 282 280 279 282 284 285 284 279 274 269 264 262 260 259 259 258
243 242 244 243 240 241 241 242 243 243 243 243 242 241 241 241 242 244 246 248 249 251 252 254 256 258 259 260 261 261 261 261 260 259 258 258 257 256 256 257 257 257 259 260 260 260 261 261 260 260 259 258 259 260 261 263 264 266 267 269 270 270 270 271 273 274 275 276 276 277 278 280 280 279 281 285 286 286 284 278 273 270 267 265 261 258 258 258
242 244 245 244 241 241 241 243 245 244 242 243 244 244 244 242 241 244 246 248 249 249 249 251 254 256 257 258 259 260 261 261 260 260 259 257 255 253 254 256 256 256 256 257 258 257 257 259 259 260 259 259 259 259 260 263 266 268 270 271 271 271 271 272 273 274 275 276 277 278 279 279 280 282 286 286 285 285 283 279 275 273 271 268 264 260 259 258
238 240 242 242 243 243 242 245 249 247 244 243 243 245 247 246 244 244 245 246 248 248 247 248 250 253 255 256 258 260 261 261 261 261 260 258 254 252 253 255 256 255 254 254 255 255 255 256 257 259 260 259 258 259 262 266 269 270 270 270 269 270 271 272 273 273 274 276 278 280 281 281 282 286 286 284 284 283 282 280 276 273 271 269 266 263 262 261
233 234 233 233 238 241 242 245 248 248 247 246 246 245 246 247 245 245 245 246 248 249 249 248 249 252 254 256 258 259 261 262 261 261 260 257 253 252 251 253 255 255 253 252 253 253 253 254 255 257 259 259 260 262 266 269 268 266 266 267 268 270 271 272 273 273 274 277 280 282 282 281 282 284 282 282 284 283 281 279 274 272 271 270 268 266 265 263
230 233 231 227 231 235 237 239 241 244 246 248 248 245 241 242 242 242 244 245 246 248 249 249 250 252 253 255 257 259 260 261 261 260 259 257 255 254 253 254 257 257 254 253 253 252 253 254 255 256 256 257 259 262 264 264 264 264 265 266 268 271 274 276 277 279 279 280 281 282 281 279 280 282 282 284 285 283 281 276 271 271 273 271 270 269 267 267
226 229 229 228 231 233 233 235 238 241 246 249 250 247 243 242 242 242 243 243 243 243 244 246 248 249 249 251 254 256 257 258 260 260 260 259 258 258 257 257 259 258 256 254 253 252 252 252 252 252 253 254 257 259 261 264 265 265 265 265 269 274 279 281 283 283 281 278 277 277 278 278 280 282 283 285 285 283 280 276 272 272 272 271 269 268 267 267
224 226 228 230 234 235 233 235 238 240 244 248 250 248 246 245 246 246 245 244 244 243 243 245 246 247 247 248 251 255 256 258 259 260 260 260 260 260 260 260 260 260 258 256 253 252 251 252 253 254 255 256 258 258 260 263 265 265 268 271 273 275 277 280 281 280 276 274 274 274 275 278 281 282 282 282 283 281 278 275 274 274 273 271 270 269 269 269
223 225 227 230 233 233 232 232 235 239 244 247 247 246 245 245 244 244 244 245 245 245 245 245 247 249 250 250 251 253 255 256 258 258 259 260 260 260 260 259 259 259 259 257 255 253 251 252 254 255 255 256 257 257 259 264 267 271 274 274 272 271 273 279 282 278 273 273 273 271 274 280 283 283 281 280 280 279 277 275 275 275 274 272 271 271 271 272
223 224 227 231 233 234 233 233 234 238 242 243 243 243 243 243 242 242 244 246 246 245 245 245 247 250 251 250 250 251 253 255 257 257 258 259 258 257 256 256 256 257 257 255 254 253 251 249 250 252 254 255 256 259 263 267 270 272 272 271 271 271 273 279 281 276 273 273 271 271 277 282 282 280 280 281 280 279 278 277 276 274 272 272 272 273 274 275
222 223 225 228 231 232 232 233 234 234 235 237 239 239 238 239 241 241 243 245 245 246 247 246 246 248 250 250 250 250 252 254 255 255 255 256 255 255 255 256 257 258 258 255 253 252 252 250 249 250 252 254 257 261 265 267 268 269 269 269 270 270 272 277 278 275 276 275 272 272 276 279 279 278 279 280 280 279 277 275 274 272 271 273 275 276 278 280
220 221 222 224 228 229 227 226 231 233 233 235 237 237 237 238 240 240 241 243 245 247 248 247 246 247 249 250 251 250 250 251 253 253 253 254 256 256 257 258 258 259 259 257 254 252 252 252 251 252 254 256 260 263 266 267 267 269 269 269 269 269 271 275 277 277 276 272 272 275 274 274 276 276 276 277 278 276 275 274 274 274 275 277 279 279 281 282
221 220 220 223 230 234 232 229 232 234 234 234 235 235 236 236 236 238 240 242 244 245 247 248 246 246 247 248 250 250 249 250 251 251 252 255 257 258 259 259 259 259 260 259 257 255 254 254 256 258 259 261 262 263 265 267 267 268 269 269 269 270 272 277 279 278 272 268 272 275 271 270 272 272 273 275 276 277 278 278 277 277 278 280 281 281 282 282
223 221 220 222 229 235 237 236 237 237 236 236 236 236 236 235 235 236 239 241 242 243 246 249 247 245 246 247 248 248 247 248 250 250 252 256 258 259 260 261 260 260 261 261 260 259 259 260 261 263 264 264 264 264 266 268 268 268 268 269 270 272 275 279 278 274 268 267 271 272 270 269 270 272 274 276 277 278 279 279 279 279 280 280 280 281 281 281
224 222 221 222 226 231 235 236 238 239 238 238 238 238 238 238 237 237 239 242 243 244 247 249 247 246 249 250 249 247 247 249 251 252 254 257 258 258 259 260 260 260 261 262 262 261 262 262 262 264 267 266 265 267 269 269 268 267 266 267 269 272 275 277 278 274 269 269 271 271 269 268 269 273 275 276 275 276 276 277 279 280 280 280 280 280 280 280
225 223 222 223 226 229 232 235 237 238 237 238 239 239 239 240 240 241 243 244 245 246 248 249 249 251 255 254 251 248 248 252 255 255 256 257 258 258 258 258 259 259 259 261 261 260 260 260 261 264 267 267 265 268 269 268 267 265 264 265 268 273 276 279 281 278 271 269 270 267 265 267 271 273 271 270 271 274 276 278 278 278 279 279 279 279 279 279
226 225 224 225 227 228 230 232 235 236 235 235 237 238 239 239 239 241 243 243 243 245 248 250 250 251 252 252 251 250 250 252 254 253 252 254 256 257 257 257 257 258 258 258 259 260 260 261 262 264 266 267 266 266 266 266 265 265 266 268 271 275 277 278 279 276 271 269 267 264 263 266 268 267 265 266 271 274 276 278 278 278 278 277 277 278 279 279
Height
5822 5824 5826 5828 5829 5831 5833 5834 5836 5838 5839 5841 5842 5844 5845 5846 5847 5849 5850 5851 5852 5853 5854 5856 5857 5858 5859 5860 5861 5861 5862 5863 5864 5864 5865 5866 5867 5868 5869 5870 5871 5872 5873 5874 5874 5875 5876 5876 5877 5877 5878 5878 5878 5879 5878 5878 5878 5878 5878 5878 5878 5879 5879 5878 5878 5878 5879 5879 5878 5878 5878 5878 5878 5878 5878 5878 5878 5878 5878 5878 5878 5878 5877 5877 5877 5877 5877 5876
5820 5822 5824 5825 5827 5829 5831 5833 5834 5836 5838 5840 5841 5843 5844 5845 5846 5848 5849 5850 5851 5852 5853 5855 5856 5857 5858 5859 5860 5861 5861 5862 5863 5863 5864 5865 5866 5867 5868 5869 5870 5871 5872 5873 5874 5874 5875 5875 5876 5876 5877 5877 5877 5877 5877 5877 5877 5877 5877 5877 5877 5877 5878 5878 5877 5877 5877 5878 5877 5877 5877 5877 5877 5877 5877 5877 5877 5877 5877 5877 5877 5877 5876 5876 5876 5876 5876 5876
5817 5819 5821 5823 5825 5827 5829 5831 5833 5835 5836 5838 5840 5841 5843 5844 5845 5847 5848 5849 5850 5851 5853 5854 5855 5856 5857 5858 5859 5859 5860 5861 5862 5863 5863 5864 5866 5867 5868 5869 5870 5871 5872 5872 5873 5873 5874 5874 5875 5875 5876 5876 5876 5876 5876 5876 5876 5876 5875 5876 5876 5876 5876 5876 5876 5876 5876 5876 5876 5876 5876 5876 5876 5876 5876 5876 5876 5876 5876 5876 5876 5875 5875 5875 5875 5875 5875 5875
5815 5817 5819 5821 5823 5825 5827 5829 5831 5833 5835 5837 5838 5840 5841 5843 5844 5846 5847 5848 5850 5851 5852 5853 5854 5855 5856 5857 5857 5858 5859 5860 5861 5862 5863 5864 5865 5866 5867 5868 5869 5870 5871 5871 5872 5872 5873 5873 5874 5874 5874 5875 5875 5875 5875 5875 5874 5874 5874 5874 5875 5875 5875 5875 5875 5874 5874 5874 5875 5874 5875 5875 5875 5875 5875 5875 5875 5875 5875 5875 5875 5875 5874 5874 5874 5874 5874 5874
5813 5815 5817 5819 5821 5823 5825 5827 5829 5831 5833 5835 5836 5838 5839 5841 5842 5844 5846 5847 5848 5850 5851 5852 5853 5854 5855 5855 5856 5857 5858 5859 5860 5861 5862 5863 5864 5865 5866 5867 5868 5868 5869 5870 5871 5871 5871 5872 5872 5872 5873 5873 5873 5874 5874 5873 5873 5873 5873 5873 5873 5873 5874 5874 5874 5873 5873 5873 5873 5873 5873 5874 5874 5874 5874 5874 5874 5874 5874 5874 5874 5874 5873 5873 5873 5873 5873 5873
5811 5813 5815 5817 5819 5821 5823 5825 5827 5828 5830 5832 5834 5836 5838 5839 5841 5842 5844 5845 5847 5848 5849 5850 5851 5852 5853 5854 5855 5856 5857 5858 5859 5860 5861 5862 5863 5864 5865 5866 5866 5867 5868 5869 5869 5870 5870 5870 5871 5871 5871 5871 5872 5872 5872 5872 5872 5872 5872 5871 5871 5872 5872 5872 5872 5872 5872 5872 5872 5872 5872 5872 5872 5873 5873 5873 5873 5873 5873 5873 5873 5873 5873 5872 5872 5872 5872 5872
5808 5811 5813 5815 5817 5819 5821 5823 5825 5827 5828 5830 5832 5834 5835 5837 5839 5840 5842 5843 5845 5847 5848 5849 5850 5851 5852 5853 5854 5854 5856 5857 5858 5859 5860 5861 5862 5863 5863 5864 5865 5866 5866 5867 5868 5868 5868 5869 5869 5869 5869 5869 5870 5870 5870 5870 5870 5870 5870 5870 5870 5870 5870 5871 5871 5871 5871 5871 5871 5871 5870 5870 5871 5871 5871 5871 5871 5871 5871 5872 5872 5872 5872 5871 5871 5871 5870 5870
5805 5808 5810 5812 5815 5817 5819 5821 5823 5825 5827 5828 5830 5831 5833 5835 5836 5838 5840 5841 5843 5844 5846 5847 5848 5849 5850 5851 5852 5853 5855 5856 5856 5858 5859 5859 5860 5861 5862 5863 5863 5864 5865 5865 5866 5866 5867 5867 5867 5867 5867 5868 5868 5868 5868 5868 5869 5869 5869 5868 5868 5869 5869 5869 5869 5869 5869 5869 5869 5869 5869 5869 5869 5869 5869 5870 5869 5869 5870 5870 5870 5870 5870 5870 5870 5869 5869 5869
5802 5804 5807 5809 5812 5814 5817 5819 5821 5823 5825 5826 5828 5829 5831 5832 5834 5836 5837 5839 5841 5842 5844 5845 5846 5847 5849 5850 5851 5852 5853 5854 5855 5856 5857 5858 5859 5860 5860 5861 5862 5862 5863 5863 5864 5864 5865 5865 5865 5865 5866 5866 5866 5866 5866 5867 5867 5867 5867 5867 5867 5867 5867 5867 5867 5867 5867 5867 5868 5868 5867 5867 5868 5867 5867 5868 5867 5867 5868 5868 5868 5869 5869 5869 5869 5868 5868 5868
5799 5801 5804 5806 5809 5811 5814 5816 5818 5820 5822 5824 5826 5827 5829 5830 5832 5833 5835 5837 5838 5840 5841 5843 5844 5845 5847 5848 5849 5850 5852 5852 5853 5855 5855 5856 5857 5858 5858 5859 5860 5860 5861 5861 5862 5862 5863 5863 5863 5863 5864 5864 5864 5865 5865 5865 5865 5865 5865 5865 5865 5865 5865 5865 5865 5865 5865 5865 5865 5866 5865 5865 5866 5865 5866 5866 5864 5865 5866 5866 5866 5867 5867 5867 5867 5867 5867 5867
5796 5798 5801 5803 5805 5808 5810 5813 5815 5817 5819 5821 5823 5825 5826 5828 5829 5831 5832 5834 5836 5837 5839 5840 5842 5843 5844 5846 5847 5849 5850 5850 5852 5853 5854 5855 5855 5856 5857 5857 5858 5858 5859 5859 5860 5860 5861 5861 5861 5861 5862 5862 5862 5863 5863 5863 5863 5863 5863 5863 5862 5863 5863 5863 5863 5862 5862 5863 5863 5863 5863 5863 5864 5863 5863 5863 5862 5863 5864 5864 5864 5865 5865 5865 5865 5865 5865 5865
5793 5796 5798 5800 5802 5805 5807 5809 5812 5814 5816 5818 5820 5822 5824 5825 5827 5828 5830 5831 5833 5835 5836 5838 5839 5841 5842 5843 5845 5846 5847 5848 5850 5851 5852 5853 5853 5854 5855 5855 5856 5856 5857 5857 5858 5858 5858 5859 5859 5860 5860 5860 5860 5861 5860 5861 5861 5861 5861 5860 5860 5860 5860 5860 5860 5860 5860 5860 5860 5860 5861 5862 5861 5861 5861 5861 5861 5861 5862 5862 5862 5862 5862 5862 5862 5863 5863 5863
5790 5793 5795 5797 5799 5801 5804 5806 5808 5810 5813 5815 5817 5819 5820 5822 5824 5825 5827 5829 5830 5832 5833 5835 5836 5838 5839 5841 5842 5844 5845 5846 5848 5849 5849 5850 5851 5852 5852 5853 5854 5854 5855 5855 5856 5856 5856 5857 5857 5858 5858 5858 5859 5859 5858 5858 5858 5858 5858 5858 5857 5857 5858 5859 5858 5857 5857 5858 5858 5857 5859 5860 5859 5859 5860 5859 5859 5859 5859 5860 5860 5860 5860 5860 5860 5860 5860 5861
5787 5789 5792 5794 5796 5798 5800 5802 5805 5807 5809 5811 5813 5815 5817 5819 5820 5822 5824 5825 5827 5829 5830 5832 5833 5835 5836 5838 5840 5841 5842 5844 5845 5846 5847 5848 5848 5849 5850 5851 5851 5852 5853 5853 5853 5854 5854 5854 5855 5855 5856 5856 5856 5856 5856 5856 5856 5856 5856 5855 5855 5854 5855 5856 5856 5855 5855 5856 5855 5854 5856 5857 5856 5857 5858 5857 5856 5856 5857 5857 5858 5858 5858 5858 5857 5857 5858 5858
5783 5785 5788 5790 5792 5795 5797 5799 5801 5803 5805 5808 5810 5812 5813 5815 5817 5819 5820 5822 5824 5825 5827 5829 5830 5832 5833 5835 5837 5838 5839 5841 5842 5843 5844 5845 5846 5847 5848 5848 5849 5849 5850 5850 5851 5851 5852 5852 5852 5853 5854 5853 5853 5854 5854 5854 5854 5853 5852 5852 5852 5852 5852 5853 5853 5853 5853 5853 5852 5852 5853 5854 5854 5854 5855 5855 5854 5854 5855 5855 5855 5856 5856 5856 5855 5855 5856 5856
5779 5781 5784 5786 5789 5791 5793 5795 5797 5800 5802 5804 5806 5808 5810 5811 5813 5815 5817 5819 5820 5822 5824 5825 5827 5829 5830 5832 5834 5835 5836 5838 5839 5840 5841 5842 5843 5844 5845 5845 5846 5846 5847 5848 5848 5849 5849 5850 5850 5850 5851 5851 5851 5851 5851 5851 5852 5850 5850 5849 5849 5849 5850 5850 5851 5850 5851 5850 5849 5849 5849 5850 5851 5851 5852 5852 5852 5852 5852 5853 5853 5853 5854 5854 5853 5854 5854 5854
5774 5777 5780 5782 5784 5787 5789 5791 5794 5796 5798 5799 5802 5804 5806 5808 5809 5811 5813 5815 5816 5818 5820 5822 5824 5825 5827 5829 5831 5832 5833 5834 5835 5837 5838 5839 5840 5841 5842 5842 5843 5843 5844 5845 5846 5846 5847 5847 5848 5848 5848 5849 5849 5849 5848 5848 5848 5846 5846 5848 5847 5847 5847 5847 5847 5848 5848 5848 5847 5845 5846 5848 5847 5848 5849 5850 5849 5849 5850 5850 5851 5851 5851 5851 5851 5851 5852 5852
5770 5773 5775 5778 5780 5783 5785 5787 5790 5792 5793 5796 5798 5800 5802 5804 5805 5807 5809 5811 5813 5815 5816 5818 5820 5822 5824 5826 5828 5829 5829 5830 5832 5833 5835 5836 5837 5838 5838 5839 5840 5840 5841 5842 5843 5844 5844 5844 5845 5845 5846 5847 5847 5845 5844 5845 5844 5842 5843 5845 5845 5845 5845 5844 5843 5845 5845 5844 5843 5842 5843 5845 5845 5844 5846 5847 5847 5847 5847 5847 5848 5848 5848 5848 5848 5848 5849 5849
5765 5768 5771 5773 5776 5778 5780 5783 5785 5787 5789 5792 5793 5795 5797 5799 5801 5803 5805 5807 5809 5811 5812 5814 5817 5818 5820 5822 5824 5825 5826 5827 5829 5830 5831 5832 5833 5834 5835 5836 5837 5837 5838 5839 5840 5840 5840 5841 5842 5842 5843 5845 5844 5841 5841 5842 5841 5840 5840 5841 5841 5841 5842 5842 5840 5841 5842 5840 5840 5840 5839 5842 5842 5842 5843 5843 5844 5844 5845 5844 5844 5845 5845 5845 5845 5845 5846 5846
5760 5763 5766 5769 5771 5774 5776 5778 5780 5782 5785 5787 5789 5791 5793 5795 5797 5798 5801 5803 5805 5807 5808 5810 5813 5814 5815 5818 5820 5821 5823 5823 5825 5826 5827 5828 5829 5830 5831 5832 5833 5834 5835 5836 5836 5837 5837 5838 5839 5840 5841 5841 5840 5839 5838 5838 5837 5837 5838 5838 5838 5838 5838 5839 5837 5837 5838 5836 5836 5837 5836 5838 5840 5840 5839 5839 5841 5842 5842 5841 5841 5842 5843 5842 5842 5842 5842 5843
5755 5758 5761 5764 5766 5769 5771 5774 5776 5778 5780 5783 5785 5787 5788 5791 5792 5794 5797 5798 5800 5802 5804 5805 5808 5810 5812 5814 5816 5818 5819 5820 5821 5822 5823 5824 5825 5826 5827 5828 5829 5830 5831 5831 5832 5834 5834 5834 5836 5838 5837 5836 5835 5836 5836 5835 5833 5834 5835 5835 5835 5835 5835 5835 5833 5833 5834 5832 5833 5834 5832 5834 5836 5836 5836 5836 5837 5839 5839 5838 5838 5838 5839 5839 5838 5838 5839 5840
5749 5752 5756 5758 5761 5763 5766 5769 5771 5774 5776 5779 5781 5782 5784 5786 5787 5790 5792 5793 5795 5798 5799 5801 5803 5805 5808 5810 5811 5813 5814 5816 5817 5818 5819 5820 5821 5822 5824 5825 5825 5827 5827 5827 5828 5831 5831 5831 5833 5833 5832 5832 5832 5832 5832 5831 5830 5830 5831 5832 5831 5831 5831 5830 5829 5829 5830 5829 5830 5831 5828 5830 5833 5833 5833 5833 5833 5835 5836 5836 5835 5834 5834 5835 5835 5834 5835 5836
5743 5747 5750 5752 5756 5758 5760 5763 5766 5769 5772 5774 5776 5777 5779 5781 5783 5785 5786 5787 5790 5793 5795 5797 5799 5801 5804 5805 5807 5808 5810 5812 5813 5814 5815 5816 5817 5818 5820 5821 5822 5823 5822 5823 5825 5826 5827 5828 5828 5828 5828 5829 5829 5828 5827 5827 5827 5827 5827 5827 5827 5828 5827 5826 5825 5825 5825 5825 5826 5826 5824 5826 5830 5830 5830 5830 5830 5831 5832 5832 5832 5830 5831 5832 5831 5830 5831 5833
5738 5741 5743 5747 5750 5752 5755 5758 5761 5766 5768 5769 5770 5772 5775 5776 5778 5780 5780 5780 5783 5788 5791 5793 5794 5795 5798 5801 5803 5804 5805 5807 5808 5810 5811 5812 5813 5814 5815 5817 5817 5818 5818 5820 5822 5821 5822 5823 5822 5824 5825 5825 5825 5824 5823 5823 5822 5823 5823 5823 5822 5823 5823 5823 5822 5820 5821 5822 5822 5822 5819 5821 5827 5826 5826 5828 5827 5827 5828 5829 5828 5827 5827 5828 5828 5827 5827 5829
5732 5734 5737 5741 5743 5747 5749 5752 5758 5761 5762 5763 5765 5767 5769 5771 5773 5774 5774 5774 5776 5782 5786 5787 5789 5791 5793 5796 5798 5799 5799 5801 5804 5806 5808 5809 5809 5809 5811 5812 5813 5814 5814 5816 5817 5817 5818 5817 5817 5820 5822 5821 5820 5819 5819 5818 5818 5818 5819 5819 5818 5819 5819 5818 5818 5815 5815 5817 5818 5818 5814 5816 5823 5822 5822 5825 5825 5824 5825 5825 5824 5823 5823 5824 5824 5824 5823 5824
5726 5728 5731 5734 5737 5741 5743 5748 5754 5754 5755 5759 5760 5762 5763 5766 5767 5768 5769 5767 5768 5776 5780 5783 5785 5786 5788 5790 5792 5794 5794 5796 5800 5801 5803 5805 5805 5805 5806 5808 5809 5810 5810 5811 5811 5812 5813 5812 5813 5815 5816 5817 5816 5815 5815 5814 5814 5814 5814 5815 5814 5815 5815 5814 5814 5812 5811 5812 5812 5813 5811 5810 5816 5820 5820 5821 5821 5821 5823 5823 5821 5820 5820 5820 5820 5820 5820 5820
5720 5723 5726 5728 5732 5735 5739 5744 5746 5747 5751 5755 5754 5755 5758 5760 5761 5762 5764 5760 5760 5769 5774 5777 5779 5780 5782 5785 5787 5789 5788 5792 5795 5796 5798 5800 5801 5802 5802 5803 5805 5806 5807 5806 5805 5807 5808 5809 5809 5810 5810 5811 5812 5812 5811 5810 5809 5809 5810 5811 5810 5810 5810 5810 5810 5808 5807 5807 5805 5808 5809 5805 5807 5816 5820 5817 5815 5817 5819 5819 5818 5816 5816 5816 5816 5816 5816 5817
5714 5717 5720 5723 5726 5730 5734 5736 5739 5743 5747 5748 5748 5749 5751 5753 5754 5756 5756 5752 5755 5763 5766 5770 5774 5775 5778 5779 5781 5783 5783 5786 5789 5791 5794 5795 5796 5797 5798 5799 5800 5801 5803 5800 5800 5803 5803 5803 5804 5805 5805 5806 5807 5808 5808 5806 5805 5805 5806 5806 5805 5805 5805 5805 5805 5804 5803 5801 5799 5804 5808 5802 5800 5809 5815 5813 5812 5813 5815 5815 5812 5811 5812 5812 5812 5812 5813 5813
5707 5710 5714 5717 5719 5724 5727 5730 5735 5739 5740 5740 5741 5742 5744 5745 5747 5749 5747 5746 5752 5756 5757 5763 5769 5771 5773 5774 5776 5778 5779 5781 5783 5787 5790 5790 5791 5792 5793 5795 5795 5795 5797 5796 5797 5798 5797 5799 5801 5801 5801 5802 5803 5804 5803 5802 5800 5800 5801 5801 5801 5800 5800 5801 5800 5800 5799 5794 5795 5801 5805 5801 5796 5801 5807 5809 5811 5812 5811 5810 5807 5807 5807 5807 5808 5808 5808 5808
5700 5704 5708 5709 5713 5718 5721 5725 5731 5733 5732 5733 5734 5735 5736 5737 5740 5740 5737 5743 5751 5751 5749 5755 5761 5765 5768 5770 5771 5773 5775 5776 5778 5781 5783 5784 5787 5787 5789 5791 5790 5789 5791 5792 5793 5793 5793 5794 5796 5797 5798 5798 5799 5799 5798 5798 5796 5796 5796 5796 5797 5796 5796 5797 5796 5796 5792 5788 5793 5799 5801 5798 5792 5793 5800 5803 5807 5809 5807 5806 5804 5803 5802 5802 5803 5804 5804 5803
5693 5697 5700 5704 5708 5712 5714 5720 5725 5726 5725 5726 5726 5727 5728 5730 5731 5729 5731 5742 5749 5746 5743 5746 5752 5759 5763 5765 5766 5767 5770 5771 5773 5775 5776 5778 5781 5782 5784 5785 5786 5786 5785 5786 5789 5790 5790 5790 5790 5792 5793 5793 5793 5793 5793 5793 5793 5793 5792 5793 5793 5792 5792 5792 5791 5790 5786 5785 5791 5794 5796 5794 5787 5789 5795 5796 5799 5803 5803 5801 5799 5799 5798 5798 5798 5799 5799 5798
5687 5690 5693 5697 5701 5704 5708 5714 5717 5716 5715 5717 5718 5718 5721 5721 5718 5720 5731 5742 5743 5739 5737 5738 5745 5751 5755 5758 5759 5761 5763 5764 5767 5769 5770 5772 5774 5777 5779 5780 5782 5782 5780 5781 5784 5785 5785 5786 5786 5786 5787 5788 5789 5789 5789 5789 5790 5790 5789 5789 5789 5787 5786 5785 5785 5785 5784 5785 5787 5787 5788 5786 5783 5787 5792 5791 5792 5795 5796 5796 5795 5794 5794 5794 5794 5794 5794 5794
5681 5683 5686 5690 5693 5697 5703 5707 5707 5706 5707 5709 5708 5709 5711 5706 5705 5719 5733 5738 5736 5733 5732 5733 5738 5742 5745 5749 5752 5755 5757 5758 5762 5764 5765 5767 5769 5771 5773 5774 5776 5777 5776 5777 5778 5779 5779 5781 5782 5782 5783 5785 5785 5785 5785 5786 5786 5784 5784 5784 5784 5783 5781 5780 5781 5781 5781 5782 5782 5781 5779 5777 5778 5785 5789 5789 5789 5788 5789 5791 5790 5789 5789 5788 5789 5789 5789 5789
5675 5676 5679 5683 5686 5690 5694 5697 5698 5699 5701 5701 5698 5698 5696 5693 5704 5722 5729 5731 5731 5728 5727 5729 5731 5733 5735 5740 5745 5748 5751 5753 5757 5759 5760 5762 5763 5766 5768 5770 5772 5773 5773 5772 5771 5772 5774 5775 5778 5779 5780 5780 5780 5781 5780 5779 5779 5779 5780 5779 5778 5779 5778 5777 5777 5776 5775 5776 5775 5774 5772 5771 5775 5780 5783 5785 5785 5783 5784 5785 5785 5785 5784 5783 5783 5783 5784 5784
5668 5670 5672 5674 5677 5683 5687 5688 5690 5691 5692 5692 5689 5684 5683 5689 5707 5719 5722 5725 5724 5720 5722 5724 5723 5725 5727 5731 5736 5741 5744 5748 5751 5753 5755 5757 5759 5761 5763 5765 5767 5767 5767 5767 5766 5767 5769 5770 5773 5774 5775 5775 5775 5775 5774 5773 5773 5774 5775 5773 5773 5775 5776 5774 5773 5772 5771 5770 5767 5767 5767 5768 5772 5774 5775 5778 5780 5781 5780 5779 5779 5780 5779 5778 5778 5778 5779 5779
5660 5663 5664 5666 5673 5679 5680 5681 5685 5683 5681 5681 5675 5671 5676 5691 5707 5713 5715 5717 5715 5715 5719 5718 5717 5720 5720 5723 5728 5733 5736 5741 5745 5747 5750 5753 5754 5756 5758 5760 5761 5761 5762 5763 5762 5763 5763 5764 5766 5767 5769 5770 5770 5770 5769 5768 5768 5768 5769 5770 5770 5772 5772 5770 5769 5768 5767 5764 5761 5762 5763 5765 5767 5767 5770 5772 5774 5776 5775 5774 5774 5773 5773 5774 5774 5774 5774 5775
5652 5656 5657 5661 5670 5673 5672 5675 5677 5673 5671 5668 5662 5666 5679 5692 5702 5705 5706 5707 5707 5711 5714 5712 5713 5714 5715 5717 5720 5725 5729 5732 5736 5739 5743 5746 5747 5750 5753 5753 5755 5757 5758 5758 5758 5758 5758 5757 5758 5760 5762 5764 5765 5765 5764 5762 5762 5763 5765 5767 5767 5767 5766 5765 5764 5763 5762 5758 5756 5757 5758 5760 5760 5761 5765 5768 5769 5770 5770 5769 5768 5768 5769 5770 5770 5770 5770 5771
5648 5650 5651 5656 5663 5664 5664 5667 5666 5663 5662 5656 5653 5664 5679 5689 5698 5700 5699 5700 5700 5702 5705 5707 5707 5707 5708 5711 5712 5716 5720 5722 5727 5730 5734 5738 5741 5745 5747 5747 5749 5752 5753 5753 5751 5752 5752 5751 5752 5753 5755 5758 5759 5759 5758 5757 5758 5760 5761 5762 5762 5761 5760 5761 5760 5758 5757 5754 5751 5751 5753 5753 5755 5758 5761 5762 5764 5765 5764 5764 5764 5764 5765 5765 5766 5766 5767 5768
5642 5643 5643 5650 5656 5656 5657 5658 5656 5654 5651 5645 5647 5662 5675 5685 5694 5695 5692 5692 5690 5692 5698 5702 5702 5700 5701 5705 5706 5708 5711 5714 5719 5722 5726 5731 5735 5740 5742 5742 5743 5745 5746 5746 5745 5746 5747 5745 5745 5746 5748 5751 5752 5753 5754 5755 5756 5757 5756 5755 5755 5755 5755 5755 5756 5754 5752 5750 5747 5747 5747 5747 5750 5753 5754 5754 5757 5760 5760 5760 5760 5760 5760 5760 5761 5762 5763 5764
5634 5634 5636 5643 5647 5648 5652 5651 5646 5641 5639 5638 5645 5661 5672 5679 5685 5685 5683 5684 5683 5685 5691 5696 5696 5695 5697 5701 5701 5702 5705 5707 5711 5715 5718 5723 5728 5732 5735 5736 5737 5739 5739 5739 5739 5740 5739 5739 5739 5740 5742 5744 5746 5749 5751 5751 5751 5750 5749 5749 5749 5750 5750 5749 5749 5749 5749 5747 5746 5743 5739 5740 5744 5746 5746 5747 5751 5754 5756 5756 5755 5755 5755 5755 5756 5757 5758 5759
5627 5626 5630 5638 5639 5641 5644 5639 5633 5630 5630 5635 5644 5658 5666 5668 5671 5672 5674 5677 5677 5679 5685 5687 5688 5690 5693 5696 5695 5697 5699 5699 5702 5707 5710 5716 5721 5724 5728 5731 5732 5733 5732 5732 5734 5735 5734 5734 5735 5735 5736 5738 5740 5744 5745 5744 5744 5744 5744 5744 5743 5745 5746 5745 5744 5745 5745 5744 5743 5739 5732 5732 5738 5739 5739 5741 5744 5748 5750 5751 5751 5751 5750 5750 5751 5752 5752 5753
5617 5617 5624 5632 5631 5633 5633 5625 5624 5624 5624 5632 5643 5652 5657 5658 5661 5665 5668 5669 5669 5672 5676 5677 5679 5683 5686 5688 5689 5689 5691 5692 5695 5699 5704 5710 5714 5717 5721 5724 5725 5725 5725 5726 5728 5729 5728 5727 5727 5727 5729 5732 5734 5736 5737 5737 5738 5738 5738 5739 5740 5741 5742 5741 5740 5741 5739 5737 5736 5734 5726 5725 5732 5735 5735 5735 5737 5741 5744 5745 5746 5746 5745 5745 5746 5746 5746 5746
5607 5611 5619 5623 5622 5625 5623 5616 5617 5616 5617 5630 5640 5642 5644 5648 5654 5658 5659 5660 5663 5667 5669 5669 5673 5675 5677 5682 5683 5682 5683 5686 5689 5693 5697 5702 5706 5711 5713 5715 5716 5717 5718 5720 5721 5722 5721 5720 5721 5723 5724 5726 5728 5729 5730 5730 5730 5731 5733 5737 5738 5738 5737 5736 5735 5734 5732 5730 5730 5727 5721 5721 5727 5730 5730 5731 5732 5733 5736 5739 5740 5740 5740 5739 5739 5740 5740 5740
5600 5606 5610 5612 5614 5616 5611 5608 5611 5611 5615 5627 5630 5630 5635 5641 5646 5649 5650 5653 5658 5661 5661 5664 5668 5670 5672 5675 5675 5675 5677 5680 5684 5688 5690 5693 5699 5704 5705 5706 5708 5709 5710 5713 5714 5714 5714 5715 5716 5716 5718 5719 5720 5721 5722 5724 5726 5727 5731 5732 5730 5731 5730 5728 5729 5728 5724 5725 5725 5719 5715 5720 5725 5723 5722 5725 5727 5727 5729 5732 5733 5734 5733 5733 5733 5734 5733 5733
5592 5597 5600 5603 5605 5605 5602 5604 5608 5608 5613 5620 5620 5622 5629 5633 5637 5642 5644 5646 5650 5652 5653 5659 5663 5663 5664 5666 5666 5668 5671 5676 5680 5682 5683 5686 5691 5694 5695 5697 5699 5700 5702 5704 5705 5705 5706 5706 5708 5709 5710 5711 5712 5715 5717 5720 5721 5722 5724 5724 5722 5724 5723 5721 5722 5719 5716 5718 5718 5713 5712 5719 5721 5718 5716 5718 5721 5722 5723 5724 5726 5726 5726 5726 5727 5727 5727 5726
5582 5586 5591 5594 5595 5595 5597 5601 5603 5602 5607 5612 5612 5616 5621 5624 5630 5635 5636 5636 5640 5644 5647 5653 5656 5654 5654 5657 5659 5663 5668 5673 5674 5674 5675 5680 5683 5685 5687 5690 5693 5693 5694 5695 5696 5697 5696 5697 5700 5702 5703 5704 5708 5712 5712 5712 5713 5713 5716 5717 5716 5716 5716 5714 5712 5711 5711 5711 5709 5707 5711 5714 5715 5714 5713 5713 5714 5715 5717 5717 5717 5718 5718 5719 5720 5719 5719 5719
5571 5575 5581 5586 5586 5585 5588 5593 5593 5595 5602 5605 5605 5609 5615 5618 5622 5624 5624 5628 5635 5638 5640 5642 5645 5645 5648 5652 5655 5659 5664 5666 5665 5668 5672 5674 5676 5678 5679 5683 5685 5685 5686 5687 5688 5688 5688 5688 5692 5695 5696 5700 5706 5708 5706 5704 5705 5706 5706 5707 5708 5709 5709 5706 5703 5705 5708 5703 5699 5704 5709 5707 5709 5710 5709 5708 5708 5708 5709 5710 5710 5711 5711 5712 5712 5711 5711 5710
5561 5566 5572 5578 5577 5575 5580 5586 5588 5591 5597 5598 5599 5604 5608 5611 5613 5614 5618 5625 5629 5629 5629 5630 5634 5641 5646 5649 5649 5651 5654 5656 5658 5664 5668 5668 5668 5669 5671 5674 5676 5677 5680 5680 5681 5682 5681 5682 5687 5689 5689 5694 5700 5701 5699 5697 5698 5698 5697 5698 5700 5701 5701 5700 5698 5700 5701 5694 5693 5701 5702 5699 5704 5706 5703 5703 5702 5701 5702 5703 5704 5705 5705 5704 5704 5703 5703 5702
5553 5558 5564 5568 5568 5568 5574 5580 5582 5584 5588 5590 5591 5596 5600 5603 5608 5612 5615 5618 5618 5620 5621 5622 5630 5638 5641 5641 5640 5641 5645 5649 5653 5659 5663 5662 5661 5661 5664 5666 5668 5671 5673 5673 5675 5676 5674 5677 5683 5681 5680 5686 5691 5692 5692 5689 5689 5690 5690 5691 5692 5693 5694 5693 5691 5693 5692 5687 5690 5696 5694 5693 5700 5701 5698 5699 5698 5696 5696 5695 5696 5697 5697 5697 5696 5695 5695 5694
5544 5549 5555 5558 5559 5562 5566 5571 5572 5574 5579 5581 5583 5589 5594 5598 5604 5609 5610 5609 5610 5614 5616 5618 5626 5632 5632 5632 5633 5634 5641 5646 5650 5655 5658 5655 5653 5654 5656 5658 5660 5663 5664 5664 5668 5670 5669 5672 5676 5673 5671 5676 5682 5683 5682 5681 5680 5681 5683 5685 5687 5687 5685 5683 5683 5687 5686 5683 5687 5690 5686 5688 5695 5696 5693 5693 5691 5689 5688 5688 5689 5689 5689 5689 5688 5687 5687 5686
5535 5541 5546 5548 5550 5554 5558 5561 5563 5566 5570 5572 5576 5583 5587 5592 5600 5603 5603 5603 5606 5609 5610 5614 5622 5625 5623 5625 5625 5630 5640 5645 5645 5649 5649 5645 5645 5648 5649 5651 5653 5655 5655 5657 5659 5661 5662 5664 5667 5667 5662 5666 5676 5676 5672 5673 5672 5669 5674 5680 5682 5681 5678 5675 5677 5681 5680 5679 5682 5682 5679 5684 5691 5690 5686 5685 5683 5682 5682 5683 5683 5683 5682 5681 5680 5680 5680 5679
5528 5532 5537 5539 5541 5544 5548 5552 5555 5557 5561 5566 5571 5576 5580 5586 5594 5594 5592 5594 5599 5603 5605 5610 5616 5616 5614 5616 5620 5628 5637 5637 5636 5639 5639 5637 5639 5641 5641 5643 5645 5646 5648 5650 5651 5653 5655 5656 5659 5660 5654 5658 5669 5668 5663 5665 5659 5655 5667 5678 5678 5676 5673 5669 5670 5673 5673 5673 5673 5672 5674 5680 5683 5680 5677 5678 5677 5677 5677 5677 5677 5676 5676 5674 5673 5673 5673 5673